Air Quality Table

TIMESTAMP NO2 SO2 O3 PM10 PM2.5 CO TEMP HUM WS WD NO
2021-08-02 16:00 1.02 ug/m3 1.29 ug/m3 123.56 ug/m3 22.24 ug/m3 7.96 ug/m3 0.16 mg/m3 31.23 C 52.99 % 2.85 m/s 260.3 Deg 0.04 ug/m3
2021-08-02 15:00 0.69 ug/m3 0.99 ug/m3 123.83 ug/m3 20.63 ug/m3 8.24 ug/m3 0.16 mg/m3 29.46 C 72.78 % 3.09 m/s 261.6 Deg 0.05 ug/m3
2021-08-02 14:00 0.98 ug/m3 0.93 ug/m3 122.63 ug/m3 24.76 ug/m3 8.63 ug/m3 0.15 mg/m3 29.02 C 78.7 % 3.83 m/s 264.53 Deg 0.09 ug/m3
2021-08-02 13:00 1.76 ug/m3 1.12 ug/m3 119.53 ug/m3 26.67 ug/m3 9.45 ug/m3 0.23 mg/m3 29.43 C 75.73 % 3.16 m/s 238.84 Deg 0.18 ug/m3
2021-08-02 12:00 2.33 ug/m3 1.26 ug/m3 118.97 ug/m3 28.29 ug/m3 11.86 ug/m3 0.18 mg/m3 30.48 C 67.16 % 2.46 m/s 233.3 Deg 0.21 ug/m3
2021-08-02 11:00 2.47 ug/m3 1.46 ug/m3 116.97 ug/m3 30.68 ug/m3 10.92 ug/m3 0.19 mg/m3 30.45 C 62.73 % 2.1 m/s 249.27 Deg 0.2 ug/m3
2021-08-02 10:00 2.83 ug/m3 1.36 ug/m3 111.64 ug/m3 28.97 ug/m3 11.92 ug/m3 0.18 mg/m3 30.86 C 57.66 % 2.5 m/s 245.28 Deg 0.23 ug/m3
2021-08-02 09:00 6.62 ug/m3 1.06 ug/m3 96.3 ug/m3 25.56 ug/m3 9.06 ug/m3 0.2 mg/m3 30.05 C 65.83 % 1.77 m/s 183.72 Deg 0.94 ug/m3
2021-08-02 08:00 8.94 ug/m3 0.02 ug/m3 77.1 ug/m3 19.47 ug/m3 6.66 ug/m3 0.18 mg/m3 27.84 C 84.86 % 1.9 m/s 289.24 Deg 1.39 ug/m3
2021-08-02 07:00 5.56 ug/m3 0.05 ug/m3 71.54 ug/m3 18.78 ug/m3 6.87 ug/m3 0.16 mg/m3 26.79 C 94.04 % 1.82 m/s 322.92 Deg 0.35 ug/m3
2021-08-02 06:00 4.16 ug/m3 0.08 ug/m3 84.69 ug/m3 26.74 ug/m3 8.56 ug/m3 0.15 mg/m3 26.62 C 93.26 % 2.96 m/s 274.42 Deg 0.05 ug/m3
2021-08-02 05:00 2.48 ug/m3 0.3 ug/m3 102.95 ug/m3 29.27 ug/m3 7.93 ug/m3 0.16 mg/m3 28.01 C 80.12 % 2.35 m/s 232.6 Deg -0.01 ug/m3
2021-08-02 04:00 2.65 ug/m3 1.68 ug/m3 112.49 ug/m3 30.04 ug/m3 9.42 ug/m3 0.15 mg/m3 30.38 C 47.69 % 1.83 m/s 78.18 Deg -0.01 ug/m3
2021-08-02 03:00 4.52 ug/m3 0.61 ug/m3 105.27 ug/m3 30.39 ug/m3 9.55 ug/m3 0.15 mg/m3 28.08 C 68.47 % 3.52 m/s 11.62 Deg -0.01 ug/m3
2021-08-02 02:00 2.81 ug/m3 0.85 ug/m3 109.59 ug/m3 29.27 ug/m3 9.49 ug/m3 0.13 mg/m3 29.49 C 52.16 % 3.63 m/s 17.53 Deg -0.02 ug/m3
2021-08-02 01:00 4.76 ug/m3 0.73 ug/m3 103.78 ug/m3 29.15 ug/m3 9.81 ug/m3 0.15 mg/m3 28.39 C 64.68 % 2.78 m/s 28.3 Deg 0 ug/m3
2021-08-02 00:00 6.83 ug/m3 0.42 ug/m3 95.86 ug/m3 28.24 ug/m3 9.45 ug/m3 0.16 mg/m3 27.72 C 75.38 % 3.48 m/s 20.45 Deg 0 ug/m3
2021-08-01 23:00 5.32 ug/m3 0.1 ug/m3 75.51 ug/m3 27.12 ug/m3 8.95 ug/m3 0.16 mg/m3 27.05 C 89.28 % 2.69 m/s 34.71 Deg 0.01 ug/m3
2021-08-01 22:00 1.08 ug/m3 0.16 ug/m3 74.96 ug/m3 29.29 ug/m3 8.75 ug/m3 0.16 mg/m3 27.87 C 87 % 2.41 m/s 31.65 Deg 0 ug/m3
2021-08-01 21:00 1.97 ug/m3 0.44 ug/m3 86.04 ug/m3 26.9 ug/m3 8.83 ug/m3 0.15 mg/m3 29.23 C 64.27 % 2.24 m/s 22.43 Deg -0.02 ug/m3
2021-08-01 20:00 2.43 ug/m3 0.96 ug/m3 94.33 ug/m3 26.64 ug/m3 8.27 ug/m3 0.14 mg/m3 30.21 C 47.17 % 1.65 m/s 169.17 Deg -0.02 ug/m3
2021-08-01 19:00 5.2 ug/m3 1.23 ug/m3 95.24 ug/m3 27.11 ug/m3 9.2 ug/m3 0.14 mg/m3 31.36 C 39.9 % 1.78 m/s 300.99 Deg -0.02 ug/m3
2021-08-01 18:00 2.52 ug/m3 1.23 ug/m3 100.55 ug/m3 28.03 ug/m3 9.22 ug/m3 0.14 mg/m3 32.28 C 37.29 % 2.05 m/s 233.52 Deg 0 ug/m3
2021-08-01 17:00 2.52 ug/m3 1.4 ug/m3 94.8 ug/m3 30.52 ug/m3 8.61 ug/m3 0.15 mg/m3 31.28 C 48.1 % 4.03 m/s 224.18 Deg 0.09 ug/m3
2021-08-01 16:00 3.57 ug/m3 1 ug/m3 99.33 ug/m3 33.45 ug/m3 9.26 ug/m3 0.15 mg/m3 31.96 C 41.79 % 5.51 m/s 212.81 Deg 0.05 ug/m3
2021-08-01 15:00 2.96 ug/m3 0.57 ug/m3 96.32 ug/m3 35.24 ug/m3 10.54 ug/m3 0.16 mg/m3 31.1 C 55.3 % 4.91 m/s 216.8 Deg 0.06 ug/m3
2021-08-01 14:00 3.07 ug/m3 0.73 ug/m3 98.03 ug/m3 36.4 ug/m3 10.64 ug/m3 0.14 mg/m3 32.81 C 37.29 % 4.81 m/s 214.65 Deg 0.05 ug/m3
2021-08-01 13:00 2.09 ug/m3 1.13 ug/m3 113.85 ug/m3 34.38 ug/m3 11.26 ug/m3 0.17 mg/m3 33.62 C 44.05 % 3.91 m/s 227.01 Deg 0.14 ug/m3
2021-08-01 12:00 2.35 ug/m3 0.89 ug/m3 101.91 ug/m3 32.94 ug/m3 10.97 ug/m3 0.17 mg/m3 32.17 C 53.03 % 2.6 m/s 257.36 Deg 0.1 ug/m3
2021-08-01 11:00 2.71 ug/m3 0.94 ug/m3 108.21 ug/m3 32.96 ug/m3 11.88 ug/m3 0.15 mg/m3 32.88 C 40.61 % 1.87 m/s 248.45 Deg 0.07 ug/m3
2021-08-01 10:00 2.04 ug/m3 0.81 ug/m3 104.82 ug/m3 33.66 ug/m3 11.47 ug/m3 0.15 mg/m3 31.6 C 46.2 % 2.36 m/s 242.43 Deg 0.05 ug/m3
2021-08-01 09:00 3.51 ug/m3 1.15 ug/m3 105.99 ug/m3 33.87 ug/m3 11.78 ug/m3 0.16 mg/m3 33.48 C 38.2 % 1.87 m/s 115.28 Deg 0.12 ug/m3
2021-08-01 08:00 1.65 ug/m3 0.82 ug/m3 100.85 ug/m3 30.52 ug/m3 11.4 ug/m3 0.15 mg/m3 30.87 C 53.6 % 1.43 m/s 257.82 Deg 0.09 ug/m3
2021-08-01 07:00 4.06 ug/m3 0.35 ug/m3 89.39 ug/m3 29.74 ug/m3 11.95 ug/m3 0.16 mg/m3 27.79 C 83.7 % 2.55 m/s 303.91 Deg 0.45 ug/m3
2021-08-01 06:00 3.75 ug/m3 0.29 ug/m3 83.21 ug/m3 27.93 ug/m3 12.13 ug/m3 0.16 mg/m3 27.53 C 85.96 % 3.89 m/s 282.99 Deg 0.01 ug/m3
2021-08-01 05:00 3.95 ug/m3 0.51 ug/m3 93.72 ug/m3 31.6 ug/m3 10.03 ug/m3 0.15 mg/m3 29.35 C 61.93 % 3.4 m/s 225.23 Deg -0.01 ug/m3
2021-08-01 04:00 5.63 ug/m3 0.94 ug/m3 105.09 ug/m3 36.05 ug/m3 11.13 ug/m3 0.14 mg/m3 32.7 C 31.02 % 3.35 m/s 68.01 Deg -0.03 ug/m3
2021-08-01 03:00 3.45 ug/m3 0.73 ug/m3 99.59 ug/m3 35.24 ug/m3 10.08 ug/m3 0.13 mg/m3 32.03 C 31.36 % 3.54 m/s 75.85 Deg -0.01 ug/m3
2021-08-01 02:00 1.89 ug/m3 0.49 ug/m3 87.98 ug/m3 29.94 ug/m3 8.08 ug/m3 0.14 mg/m3 28.63 C 60.52 % 2.72 m/s 46.71 Deg -0.02 ug/m3
2021-08-01 01:00 0.86 ug/m3 0.11 ug/m3 88.56 ug/m3 32.91 ug/m3 11.17 ug/m3 0.17 mg/m3 27.49 C 93.25 % 2.23 m/s 330.76 Deg -0.01 ug/m3
2021-08-01 00:00 8.84 ug/m3 0.7 ug/m3 85.76 ug/m3 36.02 ug/m3 11.1 ug/m3 0.18 mg/m3 28.46 C 67.46 % 1.98 m/s 291.43 Deg -0.01 ug/m3
2021-07-31 23:00 4.29 ug/m3 1.02 ug/m3 99.25 ug/m3 39.34 ug/m3 10.79 ug/m3 0.16 mg/m3 29.79 C 44.58 % 1.92 m/s 274.15 Deg -0.02 ug/m3
2021-07-31 22:00 7.27 ug/m3 1.2 ug/m3 95.3 ug/m3 34.71 ug/m3 9.89 ug/m3 0.18 mg/m3 29.94 C 47.5 % 1.43 m/s 123.56 Deg -0.01 ug/m3
2021-07-31 21:00 2.06 ug/m3 0.55 ug/m3 95.06 ug/m3 29.63 ug/m3 10.88 ug/m3 0.17 mg/m3 28.58 C 64.65 % 2.21 m/s 80.36 Deg 0 ug/m3
2021-07-31 20:00 0.53 ug/m3 0.19 ug/m3 88.43 ug/m3 28.22 ug/m3 10.25 ug/m3 0.19 mg/m3 27.81 C 87.74 % 1.41 m/s 42.21 Deg -0.02 ug/m3
2021-07-31 19:00 0.3 ug/m3 0.57 ug/m3 108.44 ug/m3 27.7 ug/m3 9.13 ug/m3 0.17 mg/m3 28.98 C 76.42 % 1.52 m/s 151.99 Deg 0 ug/m3
2021-07-31 18:00 0.52 ug/m3 0.79 ug/m3 111.56 ug/m3 29.18 ug/m3 8.9 ug/m3 0.17 mg/m3 30.55 C 65.56 % 1.43 m/s 121.56 Deg 0.03 ug/m3
2021-07-31 17:00 1.18 ug/m3 1.1 ug/m3 110.51 ug/m3 28.86 ug/m3 8.99 ug/m3 0.17 mg/m3 31.59 C 61.81 % 1.67 m/s 285.76 Deg 0.1 ug/m3
2021-07-31 16:00 1.06 ug/m3 0.95 ug/m3 107.94 ug/m3 26.51 ug/m3 8.69 ug/m3 0.17 mg/m3 31.56 C 62.93 % 2.01 m/s 271.5 Deg 0.11 ug/m3
2021-07-31 15:00 0.55 ug/m3 0.39 ug/m3 105.44 ug/m3 24.11 ug/m3 10.31 ug/m3 0.17 mg/m3 30.69 C 67.22 % 2.25 m/s 241.61 Deg 0.07 ug/m3
2021-07-31 14:00 0.71 ug/m3 0.27 ug/m3 107.8 ug/m3 23.58 ug/m3 9.94 ug/m3 0.17 mg/m3 29.34 C 75.13 % 3.17 m/s 227.09 Deg 0.1 ug/m3
2021-07-31 13:00 0.29 ug/m3 0.55 ug/m3 103.3 ug/m3 23.74 ug/m3 9.02 ug/m3 0.17 mg/m3 29.17 C 75.53 % 3.3 m/s 215.79 Deg 0.04 ug/m3
2021-07-31 12:00 0.56 ug/m3 1.05 ug/m3 104.85 ug/m3 27.95 ug/m3 8.96 ug/m3 0.17 mg/m3 30.21 C 64.23 % 2.97 m/s 231.63 Deg 0.04 ug/m3
2021-07-31 11:00 1.08 ug/m3 1.27 ug/m3 107.47 ug/m3 35.46 ug/m3 10.94 ug/m3 0.16 mg/m3 30.37 C 57.46 % 2.92 m/s 230.7 Deg 0.08 ug/m3
2021-07-31 10:00 1.06 ug/m3 1.51 ug/m3 110.27 ug/m3 31.09 ug/m3 10.08 ug/m3 0.16 mg/m3 30.71 C 52.9 % 2.39 m/s 234.14 Deg 0.16 ug/m3
2021-07-31 09:00 0.63 ug/m3 0.86 ug/m3 106.07 ug/m3 26.42 ug/m3 10.87 ug/m3 0.17 mg/m3 29.11 C 64.57 % 3.39 m/s 260.43 Deg 0.06 ug/m3
2021-07-31 08:00 0.4 ug/m3 0.11 ug/m3 100.52 ug/m3 24.14 ug/m3 10.74 ug/m3 0.18 mg/m3 27.49 C 80.43 % 3.33 m/s 242.37 Deg 0.05 ug/m3
2021-07-31 07:00 0.29 ug/m3 0.11 ug/m3 96.67 ug/m3 23.99 ug/m3 9.92 ug/m3 0.18 mg/m3 26.57 C 87.89 % 2.99 m/s 227.25 Deg 0.03 ug/m3
2021-07-31 06:00 0.19 ug/m3 0.12 ug/m3 97.02 ug/m3 21.47 ug/m3 10.35 ug/m3 0.18 mg/m3 26.23 C 85.65 % 2.02 m/s 219.87 Deg -0.01 ug/m3
2021-07-31 05:00 0.31 ug/m3 0.06 ug/m3 97.62 ug/m3 19.45 ug/m3 8.9 ug/m3 0.18 mg/m3 25.95 C 90.96 % 3.8 m/s 210.56 Deg 0 ug/m3
2021-07-31 04:00 1.75 ug/m3 0.23 ug/m3 100.25 ug/m3 18.35 ug/m3 8.21 ug/m3 0.17 mg/m3 25.94 C 92.71 % 4.11 m/s 214.72 Deg -0 ug/m3
2021-07-31 03:00 1.07 ug/m3 0.2 ug/m3 104.71 ug/m3 18.54 ug/m3 7.43 ug/m3 0.17 mg/m3 26.11 C 90.89 % 3.87 m/s 218.48 Deg 0.01 ug/m3
2021-07-31 02:00 0.58 ug/m3 0.3 ug/m3 105.94 ug/m3 17.25 ug/m3 6.93 ug/m3 0.15 mg/m3 26.31 C 87.46 % 3.75 m/s 213.67 Deg -0.01 ug/m3
2021-07-31 01:00 0.48 ug/m3 0.34 ug/m3 104.08 ug/m3 17.09 ug/m3 6.85 ug/m3 0.17 mg/m3 26.67 C 84.28 % 3.9 m/s 218.14 Deg -0.02 ug/m3
2021-07-31 00:00 0.47 ug/m3 0.52 ug/m3 103.3 ug/m3 17.95 ug/m3 7.27 ug/m3 0.16 mg/m3 27.14 C 78.95 % 4.07 m/s 211.67 Deg -0.01 ug/m3
2021-07-30 23:00 0.41 ug/m3 0.45 ug/m3 97.39 ug/m3 19.29 ug/m3 8.01 ug/m3 0.16 mg/m3 27.29 C 76.94 % 4.19 m/s 207.64 Deg -0.01 ug/m3
2021-07-30 22:00 1.57 ug/m3 0.92 ug/m3 98.86 ug/m3 21.27 ug/m3 8.14 ug/m3 0.16 mg/m3 28.12 C 67.15 % 4.42 m/s 210.68 Deg 0 ug/m3
2021-07-30 21:00 1.95 ug/m3 1.37 ug/m3 104.37 ug/m3 21.71 ug/m3 7.66 ug/m3 0.15 mg/m3 29.02 C 54.66 % 4.78 m/s 206.89 Deg -0.02 ug/m3
2021-07-30 20:00 1.38 ug/m3 1.32 ug/m3 104.26 ug/m3 22.16 ug/m3 8 ug/m3 0.15 mg/m3 29.33 C 50.91 % 4.95 m/s 205.13 Deg -0.01 ug/m3
2021-07-30 19:00 0.69 ug/m3 0.91 ug/m3 101.04 ug/m3 20.55 ug/m3 7 ug/m3 0.14 mg/m3 29.56 C 51.76 % 5.09 m/s 208.45 Deg 0 ug/m3
2021-07-30 18:00 0.4 ug/m3 0.61 ug/m3 98.97 ug/m3 16.37 ug/m3 5.84 ug/m3 0.15 mg/m3 29.47 C 57.25 % 4.74 m/s 211.78 Deg 0.03 ug/m3
2021-07-30 17:00 0.17 ug/m3 0.54 ug/m3 93.86 ug/m3 14.07 ug/m3 5.66 ug/m3 0.16 mg/m3 28.6 C 70.75 % 4.7 m/s 211.48 Deg 0.03 ug/m3
2021-07-30 16:00 0.18 ug/m3 0.69 ug/m3 92.8 ug/m3 13.71 ug/m3 6 ug/m3 0.16 mg/m3 28.97 C 69.15 % 4.74 m/s 215.37 Deg 0.02 ug/m3
2021-07-30 15:00 0.63 ug/m3 0.88 ug/m3 98.23 ug/m3 11.41 ug/m3 6.14 ug/m3 0.16 mg/m3 28.72 C 71.23 % 4.75 m/s 212.78 Deg 0.09 ug/m3
2021-07-30 14:00 0.13 ug/m3 0.68 ug/m3 97.19 ug/m3 11.41 ug/m3 6.39 ug/m3 0.16 mg/m3 28.54 C 73.98 % 4.41 m/s 215.8 Deg 0.03 ug/m3
2021-07-30 13:00 0.31 ug/m3 1.07 ug/m3 100.37 ug/m3 11.09 ug/m3 5.42 ug/m3 0.16 mg/m3 28.61 C 70.52 % 4.37 m/s 214.62 Deg 0.04 ug/m3
2021-07-30 12:00 0.68 ug/m3 0.94 ug/m3 105.45 ug/m3 11.47 ug/m3 5.49 ug/m3 0.16 mg/m3 28.43 C 70.81 % 4.32 m/s 216.52 Deg 0.09 ug/m3
2021-07-30 11:00 0.69 ug/m3 1.18 ug/m3 107.57 ug/m3 11.51 ug/m3 5.37 ug/m3 0.16 mg/m3 28.53 C 66.29 % 4.17 m/s 221.92 Deg 0.04 ug/m3
2021-07-30 10:00 1.55 ug/m3 1.94 ug/m3 118.57 ug/m3 13.12 ug/m3 5.68 ug/m3 0.15 mg/m3 29.11 C 53.07 % 3.95 m/s 216.85 Deg 0.02 ug/m3
2021-07-30 09:00 2.6 ug/m3 1.93 ug/m3 124.44 ug/m3 13.9 ug/m3 5.16 ug/m3 0.15 mg/m3 29.73 C 40.7 % 3.29 m/s 224.49 Deg 1.43 ug/m3
2021-07-30 08:00 2.6 ug/m3 1.26 ug/m3 129.21 ug/m3 12.96 ug/m3 5.07 ug/m3 0.15 mg/m3 29.61 C 35.18 % 2.83 m/s 258.47 Deg -0.01 ug/m3
2021-07-30 07:00 3.69 ug/m3 1.58 ug/m3 117.82 ug/m3 9.85 ug/m3 5.05 ug/m3 0.16 mg/m3 28.26 C 45.15 % 2.43 m/s 266.41 Deg 0.1 ug/m3
2021-07-30 06:00 3.97 ug/m3 0.98 ug/m3 98.63 ug/m3 8.64 ug/m3 5.59 ug/m3 0.16 mg/m3 26.57 C 68.47 % 2.75 m/s 242.73 Deg 0.12 ug/m3
2021-07-30 05:00 0.45 ug/m3 0.52 ug/m3 90 ug/m3 7.87 ug/m3 5.39 ug/m3 0.15 mg/m3 25.92 C 82.12 % 2.91 m/s 240.95 Deg -0.01 ug/m3
2021-07-30 04:00 5.36 ug/m3 0.71 ug/m3 82.4 ug/m3 8.32 ug/m3 5.19 ug/m3 0.16 mg/m3 25.78 C 83.19 % 2.18 m/s 234.1 Deg -0.01 ug/m3
2021-07-30 03:00 0.77 ug/m3 0.46 ug/m3 88.43 ug/m3 9.21 ug/m3 5.13 ug/m3 0.15 mg/m3 26.11 C 80.38 % 1.45 m/s 226.83 Deg -0.02 ug/m3
2021-07-30 02:00 0.77 ug/m3 1.42 ug/m3 107.27 ug/m3 9.15 ug/m3 5.43 ug/m3 0.14 mg/m3 27.3 C 62.5 % 1.36 m/s 231.09 Deg -0.02 ug/m3
2021-07-30 01:00 1.28 ug/m3 1.44 ug/m3 110.5 ug/m3 9.18 ug/m3 5.16 ug/m3 0.15 mg/m3 27.49 C 55.94 % 1.51 m/s 283.02 Deg -0.02 ug/m3
2021-07-30 00:00 1.26 ug/m3 1.28 ug/m3 118.94 ug/m3 9.5 ug/m3 4.79 ug/m3 0.15 mg/m3 28.1 C 45.58 % 1.46 m/s 284.82 Deg -0.01 ug/m3
2021-07-29 23:00 0.2 ug/m3 1.49 ug/m3 110.67 ug/m3 9.74 ug/m3 4.96 ug/m3 0.15 mg/m3 27.99 C 51.72 % 1.95 m/s 289.49 Deg -0.02 ug/m3
2021-07-29 22:00 0.43 ug/m3 1.52 ug/m3 108.65 ug/m3 9.96 ug/m3 4.67 ug/m3 0.15 mg/m3 27.98 C 52.09 % 2.12 m/s 298.55 Deg -0.02 ug/m3
2021-07-29 21:00 0.37 ug/m3 1.43 ug/m3 110.66 ug/m3 9.62 ug/m3 4.94 ug/m3 0.15 mg/m3 28.05 C 53.06 % 2.26 m/s 294.28 Deg -0.02 ug/m3
2021-07-29 20:00 0.27 ug/m3 1.34 ug/m3 108.84 ug/m3 8.83 ug/m3 5.91 ug/m3 0.15 mg/m3 28 C 57.25 % 2.68 m/s 285.13 Deg -0.03 ug/m3
2021-07-29 19:00 -0.07 ug/m3 1.25 ug/m3 104.97 ug/m3 8.7 ug/m3 5.07 ug/m3 0.15 mg/m3 28.35 C 59.52 % 3.72 m/s 279.93 Deg -0 ug/m3
2021-07-29 18:00 -0.1 ug/m3 0.91 ug/m3 101.28 ug/m3 9.16 ug/m3 4.34 ug/m3 0.15 mg/m3 28.48 C 63.68 % 4.78 m/s 282.59 Deg 0.01 ug/m3
2021-07-29 17:00 0.06 ug/m3 0.53 ug/m3 102.99 ug/m3 8.11 ug/m3 4.54 ug/m3 0.15 mg/m3 28.84 C 59.26 % 5.08 m/s 284.81 Deg 0.01 ug/m3
2021-07-29 16:00 0.05 ug/m3 0.5 ug/m3 102.14 ug/m3 7.71 ug/m3 4.65 ug/m3 0.15 mg/m3 28.97 C 58.35 % 4.93 m/s 286.11 Deg 0.01 ug/m3
2021-07-29 15:00 0.06 ug/m3 0.51 ug/m3 102.98 ug/m3 8.38 ug/m3 4.75 ug/m3 0.16 mg/m3 28.72 C 63.03 % 4.83 m/s 297.03 Deg 0.02 ug/m3
2021-07-29 14:00 0.13 ug/m3 0.53 ug/m3 103.83 ug/m3 8.08 ug/m3 5.28 ug/m3 0.16 mg/m3 28.71 C 63.81 % 4.53 m/s 300.32 Deg 0.02 ug/m3
2021-07-29 13:00 0.18 ug/m3 0.49 ug/m3 107.02 ug/m3 7.76 ug/m3 5.34 ug/m3 0.16 mg/m3 28.56 C 64.39 % 4.55 m/s 314.43 Deg 0.03 ug/m3
2021-07-29 12:00 0.13 ug/m3 0.43 ug/m3 102.52 ug/m3 7.61 ug/m3 5.66 ug/m3 0.16 mg/m3 28.19 C 72.74 % 4.77 m/s 311.41 Deg 0.04 ug/m3
2021-07-29 11:00 0.9 ug/m3 0.52 ug/m3 112.53 ug/m3 7.87 ug/m3 5.95 ug/m3 0.16 mg/m3 27.61 C 75.86 % 4.93 m/s 319.07 Deg 0.11 ug/m3
2021-07-29 10:00 0.85 ug/m3 0.42 ug/m3 110.27 ug/m3 8.25 ug/m3 5.9 ug/m3 0.16 mg/m3 27.41 C 76.6 % 4.7 m/s 320.14 Deg 0.11 ug/m3
2021-07-29 09:00 0.88 ug/m3 0.56 ug/m3 109.68 ug/m3 8.63 ug/m3 5.06 ug/m3 0.16 mg/m3 27.78 C 65.94 % 4.16 m/s 319.55 Deg 0.07 ug/m3
2021-07-29 08:00 3.79 ug/m3 0.87 ug/m3 106.26 ug/m3 8.3 ug/m3 5.32 ug/m3 0.16 mg/m3 27.65 C 60.9 % 3.8 m/s 319.02 Deg 0.32 ug/m3
2021-07-29 07:00 3.54 ug/m3 0.95 ug/m3 107.01 ug/m3 7.53 ug/m3 5.14 ug/m3 0.16 mg/m3 27.58 C 51.97 % 2.85 m/s 316.36 Deg 0.2 ug/m3
2021-07-29 06:00 6.66 ug/m3 0.97 ug/m3 96.98 ug/m3 7.28 ug/m3 5.73 ug/m3 0.17 mg/m3 26.46 C 66.73 % 2.64 m/s 320.84 Deg 0.05 ug/m3
2021-07-29 05:00 8.5 ug/m3 1.09 ug/m3 89.76 ug/m3 7.55 ug/m3 6.35 ug/m3 0.16 mg/m3 26.24 C 69.95 % 2.87 m/s 322.55 Deg -0.01 ug/m3
2021-07-29 04:00 21.91 ug/m3 2.52 ug/m3 95.8 ug/m3 8.6 ug/m3 5.88 ug/m3 0.16 mg/m3 27.14 C 53.01 % 3.08 m/s 319.69 Deg 0.05 ug/m3
2021-07-29 03:00 2.83 ug/m3 1.03 ug/m3 113.98 ug/m3 8.01 ug/m3 5.57 ug/m3 0.16 mg/m3 27.78 C 42.66 % 2.67 m/s 323.35 Deg -0.03 ug/m3
2021-07-29 02:00 6.09 ug/m3 1.36 ug/m3 106.54 ug/m3 8.38 ug/m3 5.08 ug/m3 0.14 mg/m3 27.37 C 52.1 % 2.84 m/s 327.48 Deg -0.01 ug/m3
2021-07-29 01:00 3.96 ug/m3 0.73 ug/m3 100.56 ug/m3 7.77 ug/m3 5.49 ug/m3 0.16 mg/m3 26.37 C 68.58 % 2.43 m/s 316.55 Deg -0.02 ug/m3
2021-07-29 00:00 4.7 ug/m3 0.49 ug/m3 92.02 ug/m3 7.34 ug/m3 5.14 ug/m3 0.16 mg/m3 25.91 C 78.27 % 2.43 m/s 334.06 Deg -0.01 ug/m3
2021-07-28 23:00 5.46 ug/m3 0.41 ug/m3 89.08 ug/m3 7.44 ug/m3 5.37 ug/m3 0.16 mg/m3 25.9 C 80.13 % 2.53 m/s 345.57 Deg 0 ug/m3
2021-07-28 22:00 4.61 ug/m3 0.33 ug/m3 93.62 ug/m3 8.09 ug/m3 6.44 ug/m3 0.16 mg/m3 25.96 C 78.44 % 2.63 m/s 324.55 Deg -0.01 ug/m3
2021-07-28 21:00 3.44 ug/m3 0.36 ug/m3 97.67 ug/m3 8.71 ug/m3 6.16 ug/m3 0.16 mg/m3 26.04 C 78.96 % 2.79 m/s 167.4 Deg 0 ug/m3
2021-07-28 20:00 4.7 ug/m3 0.35 ug/m3 100.86 ug/m3 8.76 ug/m3 5.96 ug/m3 0.16 mg/m3 26.31 C 77.04 % 2.59 m/s 242.02 Deg 0 ug/m3
2021-07-28 19:00 0.17 ug/m3 0.39 ug/m3 110.5 ug/m3 8.92 ug/m3 5.12 ug/m3 0.16 mg/m3 27.13 C 68.89 % 2.88 m/s 329.74 Deg -0.01 ug/m3
2021-07-28 18:00 2.3 ug/m3 0.49 ug/m3 123.15 ug/m3 16.74 ug/m3 6.91 ug/m3 0.16 mg/m3 27.84 C 62.96 % 3.39 m/s 314.4 Deg 0.15 ug/m3
2021-07-28 17:00 2.8 ug/m3 0.65 ug/m3 124.44 ug/m3 19.56 ug/m3 8.62 ug/m3 0.16 mg/m3 28.76 C 54.5 % 3.53 m/s 309.69 Deg 0.71 ug/m3
2021-07-28 16:00 5.18 ug/m3 0.77 ug/m3 119.99 ug/m3 38.16 ug/m3 6.68 ug/m3 0.16 mg/m3 28.96 C 54.86 % 3.52 m/s 310.7 Deg 0.83 ug/m3
2021-07-28 15:00 2.55 ug/m3 0.81 ug/m3 125.34 ug/m3 16.2 ug/m3 5.63 ug/m3 0.16 mg/m3 28.98 C 51.36 % 3.68 m/s 316.98 Deg 0.77 ug/m3
2021-07-28 14:00 13.2 ug/m3 1.3 ug/m3 107.41 ug/m3 7.34 ug/m3 5.5 ug/m3 0.16 mg/m3 28.35 C 53.4 % 3.75 m/s 319.58 Deg 2.72 ug/m3
2021-07-28 13:00 20.82 ug/m3 2.18 ug/m3 98.6 ug/m3 7.37 ug/m3 7.04 ug/m3 0.16 mg/m3 28.26 C 52.31 % 3.48 m/s 319.41 Deg 4.99 ug/m3
2021-07-28 12:00 15.36 ug/m3 1.69 ug/m3 103.56 ug/m3 7.14 ug/m3 6.68 ug/m3 0.16 mg/m3 28.02 C 56.4 % 3.56 m/s 323.85 Deg 3.42 ug/m3
2021-07-28 11:00 12.79 ug/m3 1.43 ug/m3 108.6 ug/m3 29.94 ug/m3 5.43 ug/m3 0.16 mg/m3 27.82 C 55.04 % 3.88 m/s 339.97 Deg 2.51 ug/m3
2021-07-28 10:00 10.56 ug/m3 1.23 ug/m3 112.77 ug/m3 14.89 ug/m3 5.26 ug/m3 0.15 mg/m3 27.77 C 52.21 % 3.6 m/s 338.63 Deg 1.82 ug/m3
2021-07-28 09:00 7.04 ug/m3 1.23 ug/m3 113.33 ug/m3 7.09 ug/m3 5.48 ug/m3 0.15 mg/m3 27.66 C 53.04 % 3.26 m/s 337.26 Deg 1.03 ug/m3
2021-07-28 08:00 9.94 ug/m3 0.97 ug/m3 95.59 ug/m3 7.2 ug/m3 6.03 ug/m3 0.16 mg/m3 26.47 C 70.5 % 2.85 m/s 343.85 Deg 1.35 ug/m3
2021-07-28 07:00 8.84 ug/m3 0.72 ug/m3 85.64 ug/m3 6.88 ug/m3 6.41 ug/m3 0.16 mg/m3 25.72 C 79.57 % 1.77 m/s 325.73 Deg 0.68 ug/m3
2021-07-28 06:00 6.2 ug/m3 0.64 ug/m3 91.06 ug/m3 7.52 ug/m3 6.09 ug/m3 0.16 mg/m3 25.18 C 83.96 % 1.52 m/s 323.19 Deg 0.06 ug/m3
2021-07-28 05:00 10.99 ug/m3 0.62 ug/m3 76.41 ug/m3 6.72 ug/m3 5.5 ug/m3 0.16 mg/m3 25.21 C 84.31 % 2.27 m/s 343.13 Deg 0 ug/m3
2021-07-28 04:00 3.12 ug/m3 0.82 ug/m3 99.61 ug/m3 5.27 ug/m3 5.56 ug/m3 0.16 mg/m3 25.21 C 83.48 % 3 m/s 344.26 Deg -0.01 ug/m3
2021-07-28 03:00 1.73 ug/m3 0.32 ug/m3 107.82 ug/m3 5.76 ug/m3 5.17 ug/m3 0.15 mg/m3 25.05 C 82.28 % 2.51 m/s 341.3 Deg -0.02 ug/m3
2021-07-28 02:00 0.01 ug/m3 0.24 ug/m3 113.41 ug/m3 5.62 ug/m3 4.88 ug/m3 0.14 mg/m3 24.99 C 84.67 % 1.4 m/s 318.88 Deg -0.02 ug/m3
2021-07-28 01:00 0.69 ug/m3 0.65 ug/m3 123.66 ug/m3 3.82 ug/m3 5.68 ug/m3 0.16 mg/m3 26.26 C 65.05 % 1.76 m/s 342.24 Deg -0.01 ug/m3
2021-07-28 00:00 1.46 ug/m3 0.84 ug/m3 130.29 ug/m3 5.3 ug/m3 5.08 ug/m3 0.15 mg/m3 27.12 C 51.42 % 1.33 m/s 354.24 Deg -0.02 ug/m3
2021-07-27 23:00 1.45 ug/m3 0.82 ug/m3 132.14 ug/m3 6.51 ug/m3 4.92 ug/m3 0.14 mg/m3 27.52 C 41.84 % 0.96 m/s 37.25 Deg -0.01 ug/m3
2021-07-27 22:00 0.86 ug/m3 0.92 ug/m3 128.1 ug/m3 6.61 ug/m3 5.88 ug/m3 0.15 mg/m3 27.57 C 43.53 % 1.32 m/s 55.75 Deg -0.02 ug/m3
2021-07-27 21:00 0.47 ug/m3 0.83 ug/m3 128.1 ug/m3 6.42 ug/m3 5.53 ug/m3 0.15 mg/m3 27.27 C 50.55 % 1.03 m/s 65.07 Deg -0.02 ug/m3
2021-07-27 20:00 0.84 ug/m3 0.6 ug/m3 124.52 ug/m3 5.51 ug/m3 4.81 ug/m3 0.15 mg/m3 26.94 C 60.2 % 0.94 m/s 97.73 Deg -0.02 ug/m3
2021-07-27 19:00 0.71 ug/m3 0.77 ug/m3 129.32 ug/m3 6.66 ug/m3 4.79 ug/m3 0.14 mg/m3 28.81 C 37.74 % 1.2 m/s 301.81 Deg -0.02 ug/m3
2021-07-27 18:00 0.26 ug/m3 0.82 ug/m3 129.09 ug/m3 7.14 ug/m3 4.55 ug/m3 0.15 mg/m3 28.88 C 44.02 % 1.99 m/s 328.5 Deg 0.01 ug/m3
2021-07-27 17:00 0.54 ug/m3 0.81 ug/m3 127.28 ug/m3 7.04 ug/m3 5.29 ug/m3 0.16 mg/m3 27.99 C 64.01 % 2.58 m/s 348.43 Deg 0.08 ug/m3
2021-07-27 16:00 0.33 ug/m3 0.65 ug/m3 120.23 ug/m3 6.39 ug/m3 5.29 ug/m3 0.16 mg/m3 27.59 C 71.29 % 2.86 m/s 335.04 Deg 0.06 ug/m3
2021-07-27 15:00 0.13 ug/m3 0.61 ug/m3 113.1 ug/m3 6.18 ug/m3 5.49 ug/m3 0.16 mg/m3 28.24 C 64.55 % 2.56 m/s 330.07 Deg 0.03 ug/m3
2021-07-27 14:00 0.37 ug/m3 0.63 ug/m3 109.22 ug/m3 7.76 ug/m3 4.88 ug/m3 0.16 mg/m3 28.06 C 68.74 % 3.11 m/s 234.73 Deg 0.06 ug/m3
2021-07-27 13:00 0.15 ug/m3 0.51 ug/m3 106.93 ug/m3 7.47 ug/m3 5.84 ug/m3 0.16 mg/m3 28.32 C 65.44 % 2.76 m/s 128.53 Deg 0.05 ug/m3
2021-07-27 12:00 0.17 ug/m3 0.15 ug/m3 105.5 ug/m3 8.35 ug/m3 6.66 ug/m3 0.17 mg/m3 26.85 C 81.77 % 3.6 m/s 111.92 Deg 0.06 ug/m3
2021-07-27 11:00 0.57 ug/m3 0.15 ug/m3 107.75 ug/m3 10.26 ug/m3 7.05 ug/m3 0.17 mg/m3 26.92 C 81.84 % 2.99 m/s 70.66 Deg 0.1 ug/m3
2021-07-27 10:00 0.99 ug/m3 0.38 ug/m3 107.8 ug/m3 11.78 ug/m3 6.15 ug/m3 0.17 mg/m3 27.14 C 79.76 % 2.45 m/s 114.86 Deg 0.12 ug/m3
2021-07-27 09:00 0.86 ug/m3 0.41 ug/m3 111.12 ug/m3 14.5 ug/m3 7.54 ug/m3 0.17 mg/m3 26.78 C 74.11 % 2.6 m/s 177.57 Deg 0.12 ug/m3
2021-07-27 08:00 4.41 ug/m3 0.27 ug/m3 99.52 ug/m3 16.88 ug/m3 8.19 ug/m3 0.18 mg/m3 25.93 C 85.98 % 2.04 m/s 183.54 Deg 0.53 ug/m3
2021-07-27 07:00 15.26 ug/m3 0.23 ug/m3 74.14 ug/m3 12.48 ug/m3 7.97 ug/m3 0.24 mg/m3 24.74 C 90.36 % 1.29 m/s 116.15 Deg 1.34 ug/m3
2021-07-27 06:00 4.09 ug/m3 0.16 ug/m3 86.84 ug/m3 10.31 ug/m3 6.86 ug/m3 0.18 mg/m3 24.24 C 92.78 % 1.43 m/s 135.31 Deg 0.07 ug/m3
2021-07-27 05:00 1.98 ug/m3 0.14 ug/m3 89.28 ug/m3 8.65 ug/m3 6.07 ug/m3 0.17 mg/m3 24.08 C 92.24 % 0.89 m/s 101.89 Deg -0.01 ug/m3
2021-07-27 04:00 0.1 ug/m3 0.41 ug/m3 92.7 ug/m3 8.4 ug/m3 6.27 ug/m3 0.17 mg/m3 24.46 C 91.52 % 1.43 m/s 143.75 Deg -0.01 ug/m3
2021-07-27 03:00 0.59 ug/m3 0.16 ug/m3 95.37 ug/m3 8.19 ug/m3 6.38 ug/m3 0.17 mg/m3 24.77 C 86.91 % 1.5 m/s 151.84 Deg -0.01 ug/m3
2021-07-27 02:00 0.74 ug/m3 0.27 ug/m3 97.75 ug/m3 7.66 ug/m3 6.73 ug/m3 0.15 mg/m3 24.94 C 79.64 % 1.22 m/s 125.71 Deg -0.02 ug/m3
2021-07-27 01:00 0.53 ug/m3 0.23 ug/m3 96.63 ug/m3 7.97 ug/m3 6.76 ug/m3 0.18 mg/m3 25.24 C 74.53 % 1.66 m/s 124.68 Deg 0 ug/m3
2021-07-27 00:00 0.8 ug/m3 0.23 ug/m3 91.33 ug/m3 9.11 ug/m3 5.81 ug/m3 0.18 mg/m3 25.4 C 75.9 % 1.83 m/s 128.38 Deg -0.01 ug/m3
2021-07-26 23:00 1.47 ug/m3 0.25 ug/m3 88.09 ug/m3 10.41 ug/m3 6.41 ug/m3 0.19 mg/m3 25.63 C 75.67 % 1.65 m/s 146.98 Deg -0 ug/m3
2021-07-26 22:00 2.71 ug/m3 0.33 ug/m3 84.1 ug/m3 11.33 ug/m3 6.53 ug/m3 0.19 mg/m3 26.01 C 74.54 % 1.84 m/s 149.88 Deg -0.01 ug/m3
2021-07-26 21:00 2.12 ug/m3 0.32 ug/m3 87.29 ug/m3 11.54 ug/m3 6.09 ug/m3 0.18 mg/m3 26.5 C 70.49 % 2.58 m/s 142.23 Deg -0.02 ug/m3
2021-07-26 20:00 0.93 ug/m3 0.28 ug/m3 93.02 ug/m3 9.38 ug/m3 5.54 ug/m3 0.17 mg/m3 26.68 C 68.44 % 3.22 m/s 157 Deg -0.01 ug/m3
2021-07-26 19:00 0.84 ug/m3 0.35 ug/m3 95.23 ug/m3 11.49 ug/m3 6 ug/m3 0.16 mg/m3 27.16 C 69.68 % 4.5 m/s 164.28 Deg 0.03 ug/m3
2021-07-26 18:00 1.75 ug/m3 0.47 ug/m3 93.1 ug/m3 10.13 ug/m3 5.7 ug/m3 0.15 mg/m3 27.93 C 67.36 % 4.89 m/s 168.44 Deg 0.18 ug/m3

It is to be noted that the data is provisional and subject to quality assurance procedures. For validated data kindly refer your request to contact.air@era.org.mt